EW1732 Weather Reports


Display with metric or nautical units.
time (UTC)temp
F
wind
direction
speed
MPH
gust
MPH
rain 1hr
in
rain 24hr
in
rain mn
in
humidity
%
barometer
mb
20260504184804 72 122 1.0 6.0 0.00 0.00 0.00 37 1009.8
20260504183746 71 149 2.0 6.0 0.00 0.00 0.00 36 1009.7
20260504181538 71 109 1.0 7.0 0.00 0.00 0.00 36 1010.0
20260504175405 71 141 1.0 5.0 0.00 0.00 0.00 36 1010.2
20260504174411 70 228 1.0 5.0 0.00 0.00 0.00 38 1010.5
20260504173336 70 113 2.0 7.0 0.00 0.00 0.00 38 1010.5
20260504150937 64 70 2.0 5.0 0.00 0.00 0.00 40 1012.2
20260504140808 60 172 1.0 4.0 0.00 0.00 0.00 43 1012.7
20260504110344 46 284 0.0 0.0 0.00 0.00 0.00 70 1013.4
20260504100255 42 300 0.0 0.0 0.00 0.00 0.00 73 1013.3
20260504090129 41 262 0.0 0.0 0.00 0.00 0.00 74 1013.2
20260504081131 41 262 0.0 0.0 0.00 0.00 0.00 72 1012.9
20260504080145 41 262 0.0 0.0 0.00 0.00 0.00 72 1012.9
20260504050639 42 262 0.0 0.0 0.00 0.00 0.00 75 1012.4
20260504045657 42 262 0.0 0.0 0.00 0.00 0.00 75 1012.5
20260504044632 43 262 0.0 0.0 0.00 0.00 0.00 74 1012.4
20260504043646 43 261 0.0 0.0 0.00 0.00 0.00 69 1012.5
20260504042656 43 261 0.0 0.0 0.00 0.00 0.00 69 1012.3
20260504041645 43 261 0.0 0.0 0.00 0.00 0.00 67 1012.3
20260504035521 44 261 0.0 0.0 0.00 0.00 0.00 64 1012.2
20260504034544 44 261 0.0 0.0 0.00 0.00 0.00 63 1012.2
20260504033608 43 261 0.0 0.0 0.00 0.00 0.00 63 1012.1
20260504032550 44 261 0.0 0.0 0.00 0.00 0.00 63 1012.2
20260504031546 44 261 0.0 0.0 0.00 0.00 0.00 62 1012.1
20260504030555 44 261 0.0 0.0 0.00 0.00 0.00 61 1012.1
20260504025542 45 261 0.0 0.0 0.00 0.00 0.00 61 1012.0
20260504024523 45 261 0.0 0.0 0.00 0.00 0.00 59 1012.1
20260504023510 46 261 0.0 0.0 0.00 0.00 0.00 58 1012.1
20260504022522 46 261 0.0 0.0 0.00 0.00 0.00 59 1012.1
20260504021528 46 261 0.0 0.0 0.00 0.00 0.00 58 1012.2
20260504020506 46 262 0.0 0.0 0.00 0.00 0.00 56 1012.1
20260504015437 47 262 0.0 0.0 0.00 0.00 0.00 56 1012.0
20260504012125 48 262 0.0 0.0 0.00 0.00 0.00 53 1011.9
20260504010005 49 262 0.0 0.0 0.00 0.00 0.00 50 1011.7
20260504005020 50 262 0.0 0.0 0.00 0.00 0.00 48 1011.4
20260504004031 51 262 0.0 0.0 0.00 0.00 0.00 46 1011.3
20260504003056 52 262 0.0 0.0 0.00 0.00 0.00 44 1011.2
20260504002116 53 262 0.0 0.0 0.00 0.00 0.00 41 1011.0
20260504001131 53 18 0.0 1.0 0.00 0.00 0.00 39 1011.0
20260504000056 54 260 0.0 1.0 0.00 0.00 0.00 38 1010.8
20260503235120 54 176 0.0 0.0 0.00 0.00 0.00 38 1010.7
20260503234141 54 239 0.0 3.0 0.00 0.00 0.00 36 1010.5
20260503233155 54 226 0.0 0.0 0.00 0.00 0.00 35 1010.4
20260503231049 55 295 0.0 8.0 0.00 0.00 0.00 35 1010.2
20260503225054 56 330 0.0 4.0 0.00 0.00 0.00 33 1009.9
20260503222945 57 313 2.0 10.0 0.00 0.00 0.00 31 1009.8
20260503221919 58 271 1.0 4.0 0.00 0.00 0.00 32 1009.8
20260503215728 58 244 1.0 6.0 0.00 0.00 0.00 33 1009.8
20260503214739 58 240 1.0 6.0 0.00 0.00 0.00 32 1009.9
20260503213738 58 39 1.0 5.0 0.00 0.00 0.00 36 1009.7
20260503211600 58 238 0.0 4.0 0.00 0.00 0.00 37 1009.6
20260503210529 57 347 1.0 4.0 0.00 0.00 0.00 37 1009.7
20260503205503 56 336 1.0 9.0 0.00 0.00 0.00 37 1009.7
20260503201006 56 321 2.0 7.0 0.00 0.00 0.00 39 1009.9
20260503194842 55 302 1.0 7.0 0.00 0.00 0.00 38 1009.9
20260503193833 54 49 2.0 7.0 0.00 0.00 0.00 41 1010.1
20260503192823 54 348 2.0 13.0 0.00 0.00 0.00 41 1010.2
20260503191839 54 321 3.0 15.0 0.00 0.00 0.00 40 1010.2
20260503190852 54 341 2.0 15.0 0.00 0.00 0.00 41 1010.3
20260503185902 54 5 2.0 15.0 0.00 0.00 0.00 42 1010.3